QPF
0.09 0.08 0.07 0.06 0.06 0.07 0.08 0.08 0.09 0.08 0.06 0.04 0.03 0.03 0.03 0.03 0.02 0.02 0.01 0.01 0.01 0.01 0.01 0.01 0.01 0.01 0.01 0.01 0.02 0.02 0.02 0.02 0.01 0.01 0.01 0.02 0.03 0.05
0.12 0.11 0.10 0.09 0.09 0.09 0.09 0.09 0.08 0.07 0.06 0.04 0.03 0.03 0.03 0.03 0.03 0.02 0.02 0.02 0.01 0.01 0.01 0.01 0.01 0.01 0.01 0.01 0.02 0.03 0.03 0.02 0.01 0.01 0.01 0.02 0.02 0.03
0.10 0.10 0.09 0.08 0.07 0.07 0.06 0.06 0.06 0.06 0.06 0.04 0.04 0.04 0.04 0.03 0.03 0.03 0.02 0.02 0.01 0.02 0.01 0.01 0.01 0.01 0.01 0.01 0.02 0.02 0.03 0.02 0.01 0.01 0.01 0.02 0.02 0.02
0.10 0.10 0.10 0.09 0.07 0.06 0.05 0.05 0.05 0.06 0.06 0.05 0.05 0.05 0.05 0.04 0.04 0.04 0.03 0.03 0.02 0.02 0.02 0.01 0.01 0.01 0.01 0.02 0.02 0.02 0.02 0.01 0.01 0.01 0.01 0.01 0.02 0.02
0.09 0.10 0.10 0.10 0.10 0.09 0.07 0.06 0.06 0.06 0.06 0.06 0.05 0.06 0.06 0.06 0.06 0.05 0.04 0.04 0.03 0.03 0.03 0.02 0.02 0.02 0.02 0.02 0.01 0.01 0.01 0.01 0.00 0.01 0.01 0.01 0.01 0.02
0.08 0.08 0.09 0.09 0.10 0.10 0.10 0.08 0.07 0.07 0.07 0.07 0.07 0.07 0.07 0.07 0.07 0.07 0.06 0.05 0.04 0.04 0.04 0.03 0.03 0.02 0.02 0.02 0.02 0.01 0.01 0.01 0.01 0.01 0.01 0.01 0.02 0.02
0.10 0.09 0.09 0.10 0.11 0.11 0.11 0.10 0.09 0.08 0.08 0.07 0.07 0.07 0.07 0.07 0.07 0.06 0.06 0.06 0.05 0.05 0.04 0.04 0.04 0.03 0.02 0.02 0.02 0.02 0.01 0.01 0.01 0.00 0.01 0.01 0.02 0.02
0.11 0.11 0.11 0.12 0.13 0.13 0.12 0.12 0.12 0.10 0.10 0.09 0.08 0.07 0.06 0.06 0.06 0.06 0.06 0.06 0.06 0.05 0.04 0.04 0.04 0.03 0.02 0.02 0.02 0.01 0.01 0.01 0.01 0.00 0.00 0.01 0.02 0.02
0.11 0.11 0.11 0.11 0.12 0.13 0.15 0.16 0.15 0.14 0.12 0.10 0.10 0.08 0.08 0.07 0.07 0.08 0.07 0.05 0.04 0.05 0.04 0.05 0.04 0.03 0.02 0.02 0.02 0.02 0.01 0.01 0.01 0.01 0.01 0.01 0.01 0.02
0.13 0.12 0.12 0.12 0.12 0.12 0.13 0.15 0.15 0.15 0.13 0.11 0.10 0.10 0.10 0.10 0.09 0.09 0.08 0.08 0.07 0.07 0.05 0.05 0.04 0.04 0.03 0.03 0.03 0.02 0.02 0.02 0.02 0.01 0.01 0.01 0.01 0.02
0.13 0.13 0.12 0.12 0.13 0.13 0.12 0.12 0.12 0.13 0.13 0.13 0.13 0.13 0.13 0.12 0.11 0.10 0.09 0.08 0.07 0.07 0.06 0.05 0.04 0.04 0.03 0.03 0.03 0.02 0.02 0.02 0.03 0.03 0.02 0.02 0.01 0.02
0.14 0.14 0.15 0.14 0.14 0.14 0.12 0.12 0.13 0.13 0.11 0.11 0.12 0.13 0.12 0.11 0.10 0.08 0.08 0.07 0.06 0.06 0.06 0.05 0.04 0.03 0.03 0.03 0.02 0.01 0.01 0.02 0.02 0.03 0.03 0.02 0.02 0.01
0.15 0.14 0.15 0.17 0.16 0.16 0.14 0.12 0.12 0.13 0.12 0.11 0.11 0.11 0.10 0.10 0.09 0.08 0.08 0.07 0.06 0.05 0.04 0.04 0.03 0.02 0.02 0.02 0.01 0.01 0.01 0.02 0.02 0.02 0.02 0.03 0.02 0.01
0.17 0.15 0.15 0.16 0.15 0.15 0.14 0.14 0.12 0.11 0.10 0.10 0.11 0.11 0.10 0.10 0.09 0.08 0.08 0.07 0.06 0.05 0.04 0.03 0.02 0.01 0.01 0.01 0.01 0.01 0.01 0.01 0.02 0.02 0.02 0.02 0.02 0.02
0.15 0.16 0.16 0.15 0.14 0.14 0.14 0.13 0.11 0.10 0.09 0.10 0.10 0.10 0.09 0.08 0.07 0.07 0.06 0.06 0.05 0.05 0.04 0.03 0.02 0.01 0.01 0.01 0.01 0.01 0.01 0.01 0.01 0.02 0.02 0.02 0.02 0.02
0.15 0.16 0.16 0.15 0.14 0.14 0.15 0.13 0.11 0.09 0.09 0.08 0.08 0.09 0.09 0.08 0.07 0.06 0.05 0.04 0.04 0.04 0.03 0.02 0.02 0.01 0.01 0.01 0.00 0.00 0.00 0.01 0.01 0.01 0.01 0.02 0.02 0.01
0.14 0.14 0.15 0.15 0.14 0.13 0.13 0.13 0.13 0.11 0.10 0.09 0.08 0.08 0.08 0.08 0.07 0.06 0.05 0.04 0.03 0.03 0.02 0.02 0.02 0.02 0.01 0.01 0.01 0.01 0.01 0.00 0.00 0.00 0.01 0.01 0.01 0.01
0.13 0.13 0.12 0.12 0.12 0.13 0.13 0.13 0.13 0.12 0.11 0.10 0.09 0.08 0.08 0.08 0.07 0.06 0.05 0.04 0.03 0.03 0.02 0.02 0.02 0.02 0.02 0.01 0.01 0.01 0.01 0.00 0.00 0.00 0.00 0.00 0.01 0.01
0.12 0.11 0.11 0.11 0.11 0.11 0.11 0.11 0.11 0.11 0.11 0.10 0.09 0.09 0.08 0.08 0.07 0.06 0.05 0.04 0.03 0.03 0.02 0.02 0.02 0.01 0.01 0.01 0.01 0.01 0.01 0.00 0.00 0.00 0.00 0.00 0.00 0.00
0.11 0.09 0.09 0.10 0.10 0.10 0.09 0.09 0.09 0.09 0.10 0.10 0.09 0.08 0.07 0.07 0.06 0.05 0.04 0.04 0.03 0.02 0.02 0.02 0.01 0.01 0.01 0.01 0.01 0.01 0.01 0.00 0.00 0.00 0.00 0.00 0.00 0.00
0.10 0.11 0.10 0.10 0.11 0.11 0.11 0.10 0.09 0.08 0.08 0.08 0.08 0.07 0.07 0.06 0.06 0.05 0.04 0.04 0.04 0.03 0.02 0.01 0.01 0.01 0.01 0.01 0.01 0.01 0.01 0.00 0.00 0.00 0.00 0.00 0.00 0.00
0.11 0.12 0.13 0.13 0.12 0.12 0.11 0.11 0.10 0.09 0.08 0.07 0.07 0.07 0.07 0.07 0.06 0.05 0.04 0.04 0.03 0.02 0.02 0.01 0.01 0.01 0.01 0.01 0.01 0.01 0.01 0.00 0.00 0.00 0.00 0.00 0.00 0.00
0.12 0.12 0.13 0.13 0.12 0.12 0.11 0.11 0.10 0.10 0.09 0.08 0.07 0.07 0.07 0.06 0.06 0.05 0.04 0.04 0.03 0.02 0.02 0.02 0.02 0.01 0.01 0.01 0.01 0.01 0.01 0.01 0.00 0.01 0.01 0.01 0.01 0.00
MSLP
1014.94 1015.45 1015.95 1016.43 1016.91 1017.41 1017.93 1018.49 1019.09 1019.74 1020.41 1021.07 1021.69 1022.22 1022.63 1022.90 1023.04 1023.05 1022.98 1022.87 1022.79 1022.78 1022.87 1023.07 1023.35 1023.68 1023.99 1024.21 1024.27 1024.14 1023.78 1023.22 1022.49 1021.65 1020.79 1019.99 1019.32 1018.85
1014.59 1015.05 1015.47 1015.89 1016.31 1016.75 1017.25 1017.82 1018.46 1019.17 1019.93 1020.70 1021.44 1022.09 1022.61 1022.98 1023.19 1023.26 1023.23 1023.16 1023.10 1023.10 1023.21 1023.41 1023.70 1024.03 1024.33 1024.54 1024.58 1024.42 1024.04 1023.45 1022.70 1021.85 1020.98 1020.18 1019.53 1019.06
1014.25 1014.66 1015.04 1015.40 1015.77 1016.18 1016.66 1017.23 1017.91 1018.67 1019.50 1020.36 1021.19 1021.94 1022.56 1023.01 1023.30 1023.44 1023.47 1023.44 1023.41 1023.44 1023.55 1023.76 1024.04 1024.36 1024.64 1024.83 1024.86 1024.68 1024.30 1023.72 1022.98 1022.16 1021.33 1020.56 1019.94 1019.50
1013.88 1014.26 1014.61 1014.94 1015.28 1015.67 1016.14 1016.72 1017.41 1018.21 1019.09 1020.00 1020.90 1021.72 1022.41 1022.94 1023.31 1023.52 1023.61 1023.64 1023.65 1023.71 1023.84 1024.05 1024.33 1024.62 1024.88 1025.05 1025.06 1024.89 1024.53 1023.98 1023.30 1022.54 1021.78 1021.09 1020.53 1020.14
1013.43 1013.80 1014.13 1014.45 1014.78 1015.17 1015.64 1016.22 1016.92 1017.74 1018.64 1019.58 1020.52 1021.38 1022.12 1022.72 1023.15 1023.43 1023.60 1023.69 1023.76 1023.86 1024.02 1024.24 1024.50 1024.78 1025.02 1025.17 1025.18 1025.03 1024.70 1024.22 1023.62 1022.97 1022.31 1021.72 1021.24 1020.91
1012.88 1013.24 1013.58 1013.90 1014.24 1014.64 1015.12 1015.70 1016.40 1017.22 1018.11 1019.06 1020.00 1020.88 1021.66 1022.30 1022.80 1023.16 1023.40 1023.58 1023.72 1023.87 1024.06 1024.30 1024.56 1024.82 1025.05 1025.18 1025.20 1025.07 1024.80 1024.41 1023.91 1023.38 1022.85 1022.38 1022.01 1021.75
1012.25 1012.60 1012.94 1013.28 1013.64 1014.05 1014.54 1015.12 1015.82 1016.62 1017.50 1018.42 1019.36 1020.24 1021.04 1021.72 1022.28 1022.71 1023.04 1023.30 1023.53 1023.74 1023.98 1024.24 1024.50 1024.76 1024.97 1025.10 1025.13 1025.04 1024.83 1024.53 1024.15 1023.75 1023.36 1023.02 1022.76 1022.59
1011.57 1011.91 1012.25 1012.59 1012.97 1013.39 1013.89 1014.48 1015.17 1015.95 1016.81 1017.71 1018.62 1019.50 1020.32 1021.04 1021.65 1022.16 1022.57 1022.92 1023.23 1023.52 1023.81 1024.09 1024.37 1024.62 1024.83 1024.96 1025.00 1024.95 1024.81 1024.59 1024.33 1024.06 1023.80 1023.58 1023.43 1023.35
1010.92 1011.22 1011.55 1011.89 1012.28 1012.71 1013.22 1013.82 1014.50 1015.26 1016.10 1016.98 1017.88 1018.75 1019.58 1020.33 1020.99 1021.57 1022.07 1022.51 1022.89 1023.25 1023.59 1023.90 1024.19 1024.45 1024.65 1024.78 1024.84 1024.82 1024.74 1024.61 1024.45 1024.29 1024.15 1024.05 1023.99 1023.99
1010.35 1010.62 1010.91 1011.25 1011.63 1012.08 1012.59 1013.19 1013.87 1014.63 1015.45 1016.32 1017.21 1018.08 1018.92 1019.70 1020.41 1021.05 1021.62 1022.12 1022.58 1022.99 1023.37 1023.71 1024.02 1024.28 1024.48 1024.62 1024.69 1024.71 1024.67 1024.61 1024.53 1024.46 1024.41 1024.40 1024.42 1024.48
1009.94 1010.15 1010.41 1010.72 1011.10 1011.55 1012.07 1012.68 1013.37 1014.13 1014.95 1015.81 1016.70 1017.57 1018.42 1019.22 1019.97 1020.65 1021.26 1021.82 1022.32 1022.77 1023.18 1023.55 1023.86 1024.13 1024.34 1024.49 1024.58 1024.62 1024.63 1024.62 1024.60 1024.59 1024.61 1024.66 1024.74 1024.84
1009.71 1009.86 1010.07 1010.37 1010.74 1011.19 1011.72 1012.35 1013.05 1013.82 1014.65 1015.52 1016.40 1017.28 1018.13 1018.94 1019.70 1020.39 1021.03 1021.61 1022.14 1022.61 1023.04 1023.42 1023.74 1024.02 1024.24 1024.40 1024.51 1024.59 1024.63 1024.66 1024.68 1024.72 1024.77 1024.85 1024.96 1025.09
1009.64 1009.74 1009.93 1010.20 1010.57 1011.02 1011.58 1012.22 1012.94 1013.73 1014.57 1015.44 1016.32 1017.20 1018.04 1018.84 1019.59 1020.28 1020.92 1021.50 1022.02 1022.50 1022.93 1023.31 1023.65 1023.93 1024.17 1024.36 1024.50 1024.60 1024.67 1024.73 1024.78 1024.84 1024.91 1025.00 1025.12 1025.25
1009.70 1009.77 1009.94 1010.21 1010.58 1011.05 1011.62 1012.28 1013.02 1013.83 1014.68 1015.56 1016.44 1017.30 1018.12 1018.90 1019.62 1020.28 1020.89 1021.44 1021.95 1022.41 1022.83 1023.22 1023.57 1023.87 1024.13 1024.35 1024.52 1024.65 1024.75 1024.83 1024.90 1024.96 1025.03 1025.12 1025.22 1025.34
1009.80 1009.87 1010.04 1010.32 1010.71 1011.20 1011.80 1012.49 1013.25 1014.07 1014.94 1015.81 1016.68 1017.52 1018.31 1019.05 1019.73 1020.34 1020.91 1021.42 1021.89 1022.33 1022.75 1023.13 1023.49 1023.82 1024.10 1024.35 1024.56 1024.72 1024.85 1024.94 1025.01 1025.07 1025.13 1025.19 1025.26 1025.35
1009.87 1009.96 1010.16 1010.47 1010.88 1011.41 1012.03 1012.75 1013.53 1014.37 1015.24 1016.11 1016.96 1017.77 1018.52 1019.22 1019.85 1020.41 1020.93 1021.40 1021.84 1022.25 1022.65 1023.04 1023.41 1023.76 1024.08 1024.36 1024.59 1024.78 1024.92 1025.02 1025.09 1025.13 1025.16 1025.19 1025.23 1025.28
1009.84 1009.97 1010.21 1010.55 1011.01 1011.57 1012.22 1012.96 1013.77 1014.62 1015.48 1016.35 1017.18 1017.96 1018.68 1019.34 1019.92 1020.44 1020.91 1021.35 1021.76 1022.16 1022.55 1022.94 1023.32 1023.69 1024.03 1024.34 1024.59 1024.80 1024.94 1025.04 1025.09 1025.11 1025.11 1025.10 1025.10 1025.11
1009.67 1009.84 1010.12 1010.50 1010.99 1011.58 1012.26 1013.03 1013.85 1014.71 1015.58 1016.43 1017.25 1018.02 1018.71 1019.34 1019.89 1020.38 1020.83 1021.24 1021.64 1022.03 1022.42 1022.82 1023.22 1023.60 1023.95 1024.27 1024.54 1024.74 1024.88 1024.96 1024.99 1024.97 1024.94 1024.89 1024.84 1024.82
1009.36 1009.56 1009.86 1010.27 1010.78 1011.39 1012.09 1012.87 1013.70 1014.57 1015.44 1016.30 1017.11 1017.87 1018.55 1019.17 1019.71 1020.20 1020.64 1021.05 1021.45 1021.85 1022.25 1022.66 1023.07 1023.46 1023.82 1024.14 1024.40 1024.59 1024.71 1024.77 1024.76 1024.72 1024.64 1024.56 1024.48 1024.43
1008.96 1009.15 1009.45 1009.86 1010.37 1010.98 1011.69 1012.46 1013.30 1014.16 1015.04 1015.90 1016.71 1017.48 1018.17 1018.79 1019.35 1019.85 1020.31 1020.74 1021.16 1021.58 1022.01 1022.43 1022.85 1023.25 1023.61 1023.92 1024.17 1024.34 1024.44 1024.47 1024.43 1024.36 1024.25 1024.14 1024.04 1023.97
1008.53 1008.68 1008.95 1009.32 1009.80 1010.39 1011.07 1011.83 1012.65 1013.51 1014.38 1015.24 1016.07 1016.84 1017.56 1018.21 1018.79 1019.33 1019.82 1020.29 1020.75 1021.20 1021.65 1022.10 1022.53 1022.94 1023.30 1023.61 1023.84 1024.00 1024.08 1024.08 1024.03 1023.93 1023.82 1023.69 1023.58 1023.50
1008.18 1008.25 1008.44 1008.74 1009.16 1009.69 1010.33 1011.05 1011.84 1012.68 1013.54 1014.39 1015.23 1016.02 1016.75 1017.43 1018.06 1018.63 1019.17 1019.69 1020.18 1020.68 1021.17 1021.64 1022.10 1022.52 1022.90 1023.21 1023.44 1023.59 1023.66 1023.66 1023.61 1023.51 1023.40 1023.28 1023.18 1023.11
1007.99 1007.95 1008.04 1008.25 1008.58 1009.03 1009.59 1010.25 1010.99 1011.79 1012.62 1013.46 1014.29 1015.08 1015.84 1016.54 1017.20 1017.81 1018.39 1018.95 1019.50 1020.03 1020.56 1021.07 1021.56 1022.01 1022.41 1022.74 1022.98 1023.15 1023.24 1023.26 1023.23 1023.15 1023.06 1022.97 1022.89 1022.84
Thickness
5609 5608 5608 5609 5607 5606 5604 5602 5597 5593 5594 5592 5590 5590 5588 5586 5585 5583 5582 5581 5579 5577 5575 5574 5571 5569 5568 5565 5562 5560 5559 5557 5556 5554 5552 5551 5550 5549
5601 5600 5600 5601 5599 5597 5597 5595 5593 5590 5588 5586 5582 5580 5578 5577 5576 5574 5572 5571 5569 5567 5566 5564 5563 5561 5559 5556 5553 5551 5549 5549 5547 5546 5545 5544 5542 5541
5593 5593 5593 5592 5591 5590 5588 5587 5585 5582 5579 5575 5572 5570 5568 5567 5565 5563 5562 5561 5560 5558 5557 5555 5553 5551 5549 5547 5544 5542 5541 5540 5539 5537 5536 5535 5534 5534
5585 5584 5585 5583 5582 5582 5581 5579 5578 5576 5572 5568 5564 5561 5559 5557 5555 5553 5551 5551 5550 5549 5548 5546 5544 5541 5539 5537 5535 5534 5532 5531 5530 5528 5527 5527 5526 5525
5577 5576 5576 5575 5574 5573 5573 5572 5570 5568 5565 5562 5558 5553 5550 5547 5544 5542 5540 5540 5540 5539 5538 5536 5534 5532 5530 5528 5526 5524 5523 5522 5520 5519 5518 5517 5516 5516
5567 5567 5568 5567 5568 5566 5565 5564 5562 5559 5556 5554 5550 5545 5542 5538 5536 5533 5530 5530 5529 5529 5528 5526 5525 5523 5521 5519 5517 5516 5514 5513 5511 5510 5509 5508 5507 5506
5557 5557 5558 5560 5560 5559 5557 5556 5554 5551 5548 5545 5541 5537 5533 5531 5530 5527 5523 5520 5518 5517 5517 5516 5514 5513 5511 5509 5508 5506 5505 5503 5502 5501 5499 5498 5497 5497
5546 5546 5547 5549 5550 5550 5550 5549 5548 5544 5541 5538 5534 5533 5531 5527 5524 5520 5515 5510 5508 5507 5506 5505 5503 5502 5501 5499 5498 5496 5495 5494 5492 5491 5490 5489 5487 5486
5535 5535 5536 5537 5538 5538 5538 5538 5537 5536 5536 5534 5531 5529 5526 5523 5518 5513 5510 5506 5504 5500 5497 5495 5492 5491 5490 5489 5488 5487 5486 5485 5483 5481 5480 5479 5477 5476
5524 5524 5525 5525 5526 5526 5526 5524 5523 5524 5524 5524 5524 5523 5520 5517 5513 5510 5504 5495 5490 5488 5489 5486 5482 5481 5480 5478 5477 5477 5476 5475 5474 5472 5470 5468 5467 5465
5511 5512 5513 5513 5514 5514 5514 5511 5510 5510 5510 5511 5512 5510 5509 5506 5502 5497 5491 5487 5482 5478 5477 5476 5471 5469 5469 5468 5467 5466 5465 5464 5463 5461 5459 5458 5456 5455
5499 5501 5501 5502 5502 5501 5501 5500 5498 5498 5497 5497 5496 5495 5494 5492 5491 5489 5486 5481 5475 5471 5468 5466 5462 5460 5458 5456 5456 5456 5455 5454 5452 5450 5449 5448 5447 5445
5486 5487 5488 5489 5489 5489 5489 5489 5489 5487 5484 5483 5482 5480 5479 5478 5477 5476 5474 5472 5468 5465 5462 5458 5453 5451 5449 5446 5445 5444 5444 5443 5441 5440 5439 5438 5437 5435
5473 5475 5476 5476 5476 5476 5475 5475 5475 5474 5470 5469 5467 5466 5465 5464 5463 5462 5460 5458 5457 5457 5453 5451 5446 5443 5440 5437 5435 5433 5432 5432 5431 5430 5429 5428 5427 5426
5459 5461 5462 5462 5463 5462 5461 5462 5461 5459 5458 5456 5455 5453 5452 5451 5449 5447 5445 5444 5442 5441 5440 5439 5437 5435 5433 5429 5425 5423 5422 5421 5420 5420 5419 5418 5417 5417
5446 5447 5447 5447 5448 5448 5448 5447 5447 5447 5448 5446 5444 5441 5438 5436 5436 5435 5433 5431 5429 5426 5425 5426 5426 5425 5423 5420 5417 5414 5413 5412 5411 5410 5410 5409 5409 5408
5434 5433 5432 5432 5432 5432 5433 5434 5434 5434 5433 5431 5430 5428 5426 5425 5423 5422 5421 5419 5418 5416 5413 5412 5412 5413 5412 5410 5407 5406 5404 5402 5402 5401 5400 5400 5400 5400
5422 5421 5420 5419 5420 5420 5421 5421 5421 5421 5421 5420 5418 5417 5415 5414 5412 5410 5410 5409 5408 5406 5403 5402 5402 5401 5399 5398 5399 5398 5396 5394 5393 5393 5392 5391 5392 5393
5409 5408 5407 5407 5407 5408 5408 5409 5409 5410 5409 5407 5407 5405 5404 5403 5402 5400 5399 5398 5397 5395 5393 5392 5392 5392 5390 5390 5389 5389 5388 5386 5385 5384 5384 5383 5383 5385
5395 5395 5394 5394 5394 5394 5395 5396 5396 5396 5395 5395 5395 5394 5393 5393 5392 5390 5389 5388 5387 5386 5384 5383 5383 5383 5383 5382 5380 5379 5380 5378 5377 5376 5376 5375 5375 5376
5382 5382 5381 5381 5382 5382 5382 5383 5383 5384 5384 5384 5383 5382 5382 5382 5382 5381 5380 5380 5379 5377 5376 5375 5375 5374 5372 5371 5370 5370 5370 5371 5371 5369 5367 5366 5366 5366
5369 5369 5369 5369 5368 5369 5369 5369 5370 5372 5372 5372 5372 5372 5372 5372 5372 5371 5371 5371 5370 5369 5368 5366 5364 5363 5362 5362 5362 5360 5360 5360 5361 5361 5360 5360 5358 5357
5355 5356 5356 5356 5356 5356 5356 5357 5358 5360 5361 5362 5362 5362 5362 5362 5362 5362 5362 5361 5360 5359 5358 5356 5354 5353 5353 5353 5352 5351 5350 5350 5350 5350 5351 5352 5352 5352